Year,Month,Day,Hour,Minute,Value (Times are PST for temperature in C)
2008,05,17,00,00,13.50
2008,05,17,00,01,13.60
2008,05,17,00,02,13.50
2008,05,17,00,03,13.50
2008,05,17,00,04,13.40
2008,05,17,00,05,13.40
2008,05,17,00,06,13.40
2008,05,17,00,07,13.30
2008,05,17,00,08,13.30
2008,05,17,00,09,13.20
2008,05,17,00,10,13.10
2008,05,17,00,11,13.00
2008,05,17,00,12,13.00
2008,05,17,00,13,12.90
2008,05,17,00,14,12.80
2008,05,17,00,15,12.80
2008,05,17,00,16,12.70
2008,05,17,00,17,12.50
2008,05,17,00,18,12.40
2008,05,17,00,19,12.30
2008,05,17,00,20,12.20
2008,05,17,00,21,12.20
2008,05,17,00,22,12.20
2008,05,17,00,23,12.20
2008,05,17,00,24,12.20
2008,05,17,00,25,12.20
2008,05,17,00,26,12.30
2008,05,17,00,27,12.30
2008,05,17,00,28,12.40
2008,05,17,00,29,12.40
2008,05,17,00,30,12.40
2008,05,17,00,31,12.40
2008,05,17,00,32,12.40
2008,05,17,00,33,12.40
2008,05,17,00,34,12.40
2008,05,17,00,35,12.40
2008,05,17,00,36,12.30
2008,05,17,00,37,12.20
2008,05,17,00,38,12.20
2008,05,17,00,39,12.10
2008,05,17,00,40,12.10
2008,05,17,00,41,12.10
2008,05,17,00,42,12.20
2008,05,17,00,43,12.20
2008,05,17,00,44,12.20
2008,05,17,00,45,12.10
2008,05,17,00,46,12.00
2008,05,17,00,47,11.90
2008,05,17,00,48,11.90
2008,05,17,00,49,11.80
2008,05,17,00,50,11.80
2008,05,17,00,51,11.70
2008,05,17,00,52,11.70
2008,05,17,00,53,11.60
2008,05,17,00,54,11.60
2008,05,17,00,55,11.60
2008,05,17,00,56,11.60
2008,05,17,00,57,11.60
2008,05,17,00,58,11.60
2008,05,17,00,59,11.60
2008,05,17,01,00,11.50
2008,05,17,01,01,11.50
2008,05,17,01,02,11.40
2008,05,17,01,03,11.40
2008,05,17,01,04,11.40
2008,05,17,01,05,11.40
2008,05,17,01,06,11.40
2008,05,17,01,07,11.40
2008,05,17,01,08,11.50
2008,05,17,01,09,11.50
2008,05,17,01,10,11.60
2008,05,17,01,11,11.50
2008,05,17,01,12,11.50
2008,05,17,01,13,11.40
2008,05,17,01,14,11.40
2008,05,17,01,15,11.30
2008,05,17,01,16,11.30
2008,05,17,01,17,11.40
2008,05,17,01,18,11.40
2008,05,17,01,19,11.40
2008,05,17,01,20,11.30
2008,05,17,01,21,11.30
2008,05,17,01,22,11.30
2008,05,17,01,23,11.30
2008,05,17,01,24,11.20
2008,05,17,01,25,11.20
2008,05,17,01,26,11.20
2008,05,17,01,27,11.10
2008,05,17,01,28,11.10
2008,05,17,01,29,11.10
2008,05,17,01,30,11.10
2008,05,17,01,31,11.20
2008,05,17,01,32,11.20
2008,05,17,01,33,11.30
2008,05,17,01,34,11.30
2008,05,17,01,35,11.30
2008,05,17,01,36,11.20
2008,05,17,01,37,11.20
2008,05,17,01,38,11.20
2008,05,17,01,39,11.20
2008,05,17,01,40,11.20
2008,05,17,01,41,11.20
2008,05,17,01,42,11.20
2008,05,17,01,43,11.20
2008,05,17,01,44,11.20
2008,05,17,01,45,11.20
2008,05,17,01,46,11.20
2008,05,17,01,47,11.20
2008,05,17,01,48,11.20
2008,05,17,01,49,11.30
2008,05,17,01,50,11.30
2008,05,17,01,51,11.30
2008,05,17,01,52,11.20
2008,05,17,01,53,11.20
2008,05,17,01,54,11.20
2008,05,17,01,55,11.10
2008,05,17,01,56,11.10
2008,05,17,01,57,11.10
2008,05,17,01,58,11.00
2008,05,17,01,59,11.00
2008,05,17,02,00,11.00
2008,05,17,02,01,11.00
2008,05,17,02,02,11.10
2008,05,17,02,03,11.00
2008,05,17,02,04,11.00
2008,05,17,02,05,11.10
2008,05,17,02,06,11.10
2008,05,17,02,07,11.00
2008,05,17,02,08,11.00
2008,05,17,02,09,11.00
2008,05,17,02,10,11.00
2008,05,17,02,11,11.10
2008,05,17,02,12,11.10
2008,05,17,02,13,11.10
2008,05,17,02,14,11.10
2008,05,17,02,15,11.10
2008,05,17,02,16,11.10
2008,05,17,02,17,11.10
2008,05,17,02,18,11.00
2008,05,17,02,19,11.00
2008,05,17,02,20,11.00
2008,05,17,02,21,11.00
2008,05,17,02,22,11.10
2008,05,17,02,23,11.20
2008,05,17,02,24,11.30
2008,05,17,02,25,11.40
2008,05,17,02,26,11.40
2008,05,17,02,27,11.40
2008,05,17,02,28,11.30
2008,05,17,02,29,11.30
2008,05,17,02,30,11.20
2008,05,17,02,31,11.20
2008,05,17,02,32,11.10
2008,05,17,02,33,11.10
2008,05,17,02,34,11.10
2008,05,17,02,35,11.00
2008,05,17,02,36,11.00
2008,05,17,02,37,11.00
2008,05,17,02,38,10.90
2008,05,17,02,39,10.90
2008,05,17,02,40,10.90
2008,05,17,02,41,10.90
2008,05,17,02,42,10.90
2008,05,17,02,43,11.00
2008,05,17,02,44,10.90
2008,05,17,02,45,10.90
2008,05,17,02,46,10.90
2008,05,17,02,47,10.90
2008,05,17,02,48,10.90
2008,05,17,02,49,10.90
2008,05,17,02,50,10.80
2008,05,17,02,51,10.80
2008,05,17,02,52,10.80
2008,05,17,02,53,10.80
2008,05,17,02,54,10.70
2008,05,17,02,55,10.70
2008,05,17,02,56,10.70
2008,05,17,02,57,10.70
2008,05,17,02,58,10.70
2008,05,17,02,59,10.80
2008,05,17,03,00,10.80
2008,05,17,03,01,10.80
2008,05,17,03,02,10.90
2008,05,17,03,03,11.00
2008,05,17,03,04,11.00
2008,05,17,03,05,11.10
2008,05,17,03,06,11.10
2008,05,17,03,07,11.20
2008,05,17,03,08,11.20
2008,05,17,03,09,11.20
2008,05,17,03,10,11.30
2008,05,17,03,11,11.30
2008,05,17,03,12,11.20
2008,05,17,03,13,11.20
2008,05,17,03,14,11.10
2008,05,17,03,15,11.10
2008,05,17,03,16,11.10
2008,05,17,03,17,11.10
2008,05,17,03,18,11.20
2008,05,17,03,19,11.30
2008,05,17,03,20,11.50
2008,05,17,03,21,11.60
2008,05,17,03,22,11.60
2008,05,17,03,23,11.70
2008,05,17,03,24,11.70
2008,05,17,03,25,11.80
2008,05,17,03,26,11.80
2008,05,17,03,27,11.80
2008,05,17,03,28,11.80
2008,05,17,03,29,11.90
2008,05,17,03,30,11.90
2008,05,17,03,31,11.90
2008,05,17,03,32,11.90
2008,05,17,03,33,11.90
2008,05,17,03,34,11.90
2008,05,17,03,35,11.80
2008,05,17,03,36,11.60
2008,05,17,03,37,11.60
2008,05,17,03,38,11.50
2008,05,17,03,39,11.40
2008,05,17,03,40,11.40
2008,05,17,03,41,11.40
2008,05,17,03,42,11.30
2008,05,17,03,43,11.30
2008,05,17,03,44,11.40
2008,05,17,03,45,11.50
2008,05,17,03,46,11.50
2008,05,17,03,47,11.60
2008,05,17,03,48,11.60
2008,05,17,03,49,11.60
2008,05,17,03,50,11.70
2008,05,17,03,51,11.70
2008,05,17,03,52,11.80
2008,05,17,03,53,11.80
2008,05,17,03,54,11.80
2008,05,17,03,55,11.70
2008,05,17,03,56,11.80
2008,05,17,03,57,11.70
2008,05,17,03,58,11.70
2008,05,17,03,59,11.60
2008,05,17,04,00,11.60
2008,05,17,04,01,11.60
2008,05,17,04,02,11.60
2008,05,17,04,03,11.60
2008,05,17,04,04,11.60
2008,05,17,04,05,11.50
2008,05,17,04,06,11.50
2008,05,17,04,07,11.40
2008,05,17,04,08,11.40
2008,05,17,04,09,11.30
2008,05,17,04,10,11.20
2008,05,17,04,11,11.10
2008,05,17,04,12,11.00
2008,05,17,04,13,10.90
2008,05,17,04,14,10.80
2008,05,17,04,15,10.80
2008,05,17,04,16,10.80
2008,05,17,04,17,10.90
2008,05,17,04,18,10.90
2008,05,17,04,19,10.90
2008,05,17,04,20,10.90
2008,05,17,04,21,10.90
2008,05,17,04,22,11.00
2008,05,17,04,23,11.10
2008,05,17,04,24,11.00
2008,05,17,04,25,11.00
2008,05,17,04,26,10.90
2008,05,17,04,27,10.80
2008,05,17,04,28,10.70
2008,05,17,04,29,10.70
2008,05,17,04,30,10.70
2008,05,17,04,31,10.60
2008,05,17,04,32,10.60
2008,05,17,04,33,10.70
2008,05,17,04,34,10.70
2008,05,17,04,35,10.80
2008,05,17,04,36,10.80
2008,05,17,04,37,10.80
2008,05,17,04,38,10.80
2008,05,17,04,39,10.80
2008,05,17,04,40,10.80
2008,05,17,04,41,10.80
2008,05,17,04,42,10.80
2008,05,17,04,43,10.80
2008,05,17,04,44,10.90
2008,05,17,04,45,10.80
2008,05,17,04,46,10.80
2008,05,17,04,47,10.80
2008,05,17,04,48,10.80
2008,05,17,04,49,10.80
2008,05,17,04,50,10.80
2008,05,17,04,51,10.80
2008,05,17,04,52,10.70
2008,05,17,04,53,10.70
2008,05,17,04,54,10.70
2008,05,17,04,55,10.70
2008,05,17,04,56,10.60
2008,05,17,04,57,10.60
2008,05,17,04,58,10.70
2008,05,17,04,59,10.70
2008,05,17,05,00,10.70
2008,05,17,05,01,10.80
2008,05,17,05,02,10.80
2008,05,17,05,03,10.90
2008,05,17,05,04,11.00
2008,05,17,05,05,11.20
2008,05,17,05,06,11.30
2008,05,17,05,07,11.40
2008,05,17,05,08,11.40
2008,05,17,05,09,11.40
2008,05,17,05,10,11.30
2008,05,17,05,11,11.20
2008,05,17,05,12,11.00
2008,05,17,05,13,10.90
2008,05,17,05,14,10.80
2008,05,17,05,15,10.80
2008,05,17,05,16,10.80
2008,05,17,05,17,10.80
2008,05,17,05,18,10.90
2008,05,17,05,19,11.00
2008,05,17,05,20,11.10
2008,05,17,05,21,11.10
2008,05,17,05,22,11.10
2008,05,17,05,23,11.10
2008,05,17,05,24,11.20
2008,05,17,05,25,11.20
2008,05,17,05,26,11.20
2008,05,17,05,27,11.20
2008,05,17,05,28,11.30
2008,05,17,05,29,11.30
2008,05,17,05,30,11.50
2008,05,17,05,31,11.60
2008,05,17,05,32,11.70
2008,05,17,05,33,11.90
2008,05,17,05,34,12.00
2008,05,17,05,35,12.00
2008,05,17,05,36,12.00
2008,05,17,05,37,12.10
2008,05,17,05,38,12.10
2008,05,17,05,39,12.10
2008,05,17,05,40,12.20
2008,05,17,05,41,12.20
2008,05,17,05,42,12.20
2008,05,17,05,43,12.20
2008,05,17,05,44,12.10
2008,05,17,05,45,11.90
2008,05,17,05,46,11.80
2008,05,17,05,47,11.60
2008,05,17,05,48,11.70
2008,05,17,05,49,11.80
2008,05,17,05,50,11.70
2008,05,17,05,51,11.70
2008,05,17,05,52,11.70
2008,05,17,05,53,11.80
2008,05,17,05,54,11.70
2008,05,17,05,55,11.60
2008,05,17,05,56,11.70
2008,05,17,05,57,11.70
2008,05,17,05,58,11.60
2008,05,17,05,59,11.60
2008,05,17,06,00,11.70
2008,05,17,06,01,11.70
2008,05,17,06,02,11.70
2008,05,17,06,03,11.70
2008,05,17,06,04,11.60
2008,05,17,06,05,11.60
2008,05,17,06,06,11.60
2008,05,17,06,07,11.60
2008,05,17,06,08,11.60
2008,05,17,06,09,11.60
2008,05,17,06,10,11.60
2008,05,17,06,11,11.60
2008,05,17,06,12,11.50
2008,05,17,06,13,11.50
2008,05,17,06,14,11.50
2008,05,17,06,15,11.50
2008,05,17,06,16,11.40
2008,05,17,06,17,11.50
2008,05,17,06,18,11.60
2008,05,17,06,19,11.60
2008,05,17,06,20,11.60
2008,05,17,06,21,11.50
2008,05,17,06,22,11.50
2008,05,17,06,23,11.50
2008,05,17,06,24,11.50
2008,05,17,06,25,11.60
2008,05,17,06,26,11.60
2008,05,17,06,27,11.60
2008,05,17,06,28,11.60
2008,05,17,06,29,11.60
2008,05,17,06,30,11.60
2008,05,17,06,31,11.60
2008,05,17,06,32,11.70
2008,05,17,06,33,11.70
2008,05,17,06,34,11.70
2008,05,17,06,35,11.70
2008,05,17,06,36,11.70
2008,05,17,06,37,11.70
2008,05,17,06,38,11.70
2008,05,17,06,39,11.70
2008,05,17,06,40,11.70
2008,05,17,06,41,11.70
2008,05,17,06,42,11.70
2008,05,17,06,43,11.70
2008,05,17,06,44,11.70
2008,05,17,06,45,11.60
2008,05,17,06,46,11.60
2008,05,17,06,47,11.60
2008,05,17,06,48,11.70
2008,05,17,06,49,11.70
2008,05,17,06,50,11.70
2008,05,17,06,51,11.70
2008,05,17,06,52,11.70
2008,05,17,06,53,11.70
2008,05,17,06,54,11.70
2008,05,17,06,55,11.70
2008,05,17,06,56,11.80
2008,05,17,06,57,11.80
2008,05,17,06,58,11.90
2008,05,17,06,59,12.00
2008,05,17,07,00,12.10
2008,05,17,07,01,12.20
2008,05,17,07,02,12.30
2008,05,17,07,03,12.30
2008,05,17,07,04,12.40
2008,05,17,07,05,12.50
2008,05,17,07,06,12.50
2008,05,17,07,07,12.60
2008,05,17,07,08,12.60
2008,05,17,07,09,12.70
2008,05,17,07,10,12.70
2008,05,17,07,11,12.80
2008,05,17,07,12,12.90
2008,05,17,07,13,13.10
2008,05,17,07,14,13.20
2008,05,17,07,15,13.40
2008,05,17,07,16,13.50
2008,05,17,07,17,13.60
2008,05,17,07,18,13.80
2008,05,17,07,19,13.90
2008,05,17,07,20,14.00
2008,05,17,07,21,14.10
2008,05,17,07,22,14.10
2008,05,17,07,23,14.20
2008,05,17,07,24,14.30
2008,05,17,07,25,14.40
2008,05,17,07,26,14.50
2008,05,17,07,27,14.60
2008,05,17,07,28,14.70
2008,05,17,07,29,14.70
2008,05,17,07,30,14.80
2008,05,17,07,31,14.80
2008,05,17,07,32,14.90
2008,05,17,07,33,15.00
2008,05,17,07,34,15.00
2008,05,17,07,35,15.00
2008,05,17,07,36,15.00
2008,05,17,07,37,15.00
2008,05,17,07,38,15.00
2008,05,17,07,39,15.00
2008,05,17,07,40,15.00
2008,05,17,07,41,15.00
2008,05,17,07,42,15.00
2008,05,17,07,43,15.10
2008,05,17,07,44,15.10
2008,05,17,07,45,15.10
2008,05,17,07,46,15.10
2008,05,17,07,47,15.10
2008,05,17,07,48,15.10
2008,05,17,07,49,15.10
2008,05,17,07,50,15.10
2008,05,17,07,51,15.20
2008,05,17,07,52,15.20
2008,05,17,07,53,15.20
2008,05,17,07,54,15.30
2008,05,17,07,55,15.30
2008,05,17,07,56,15.40
2008,05,17,07,57,15.50
2008,05,17,07,58,15.50
2008,05,17,07,59,15.50
2008,05,17,08,00,15.60
2008,05,17,08,01,15.60
2008,05,17,08,02,15.60
2008,05,17,08,03,15.70
2008,05,17,08,04,15.70
2008,05,17,08,05,15.70
2008,05,17,08,06,15.80
2008,05,17,08,07,15.80
2008,05,17,08,08,15.90
2008,05,17,08,09,16.00
2008,05,17,08,10,16.00
2008,05,17,08,11,16.10
2008,05,17,08,12,16.20
2008,05,17,08,13,16.30
2008,05,17,08,14,16.40
2008,05,17,08,15,16.50
2008,05,17,08,16,16.60
2008,05,17,08,17,16.60
2008,05,17,08,18,16.70
2008,05,17,08,19,16.70
2008,05,17,08,20,16.80
2008,05,17,08,21,16.80
2008,05,17,08,22,16.90
2008,05,17,08,23,16.90
2008,05,17,08,24,16.90
2008,05,17,08,25,16.90
2008,05,17,08,26,16.90
2008,05,17,08,27,17.00
2008,05,17,08,28,17.10
2008,05,17,08,29,17.20
2008,05,17,08,30,17.30
2008,05,17,08,31,17.50
2008,05,17,08,32,17.60
2008,05,17,08,33,17.70
2008,05,17,08,34,17.80
2008,05,17,08,35,17.80
2008,05,17,08,36,17.80
2008,05,17,08,37,17.80
2008,05,17,08,38,17.80
2008,05,17,08,39,17.70
2008,05,17,08,40,17.60
2008,05,17,08,41,17.40
2008,05,17,08,42,17.30
2008,05,17,08,43,17.10
2008,05,17,08,44,17.00
2008,05,17,08,45,16.80
2008,05,17,08,46,16.70
2008,05,17,08,47,16.60
2008,05,17,08,48,16.60
2008,05,17,08,49,16.60
2008,05,17,08,50,16.60
2008,05,17,08,51,16.60
2008,05,17,08,52,16.60
2008,05,17,08,53,16.50
2008,05,17,08,54,16.50
2008,05,17,08,55,16.50
2008,05,17,08,56,16.50
2008,05,17,08,57,16.60
2008,05,17,08,58,16.60
2008,05,17,08,59,16.60
2008,05,17,09,00,16.70
2008,05,17,09,01,16.80
2008,05,17,09,02,16.80
2008,05,17,09,03,16.90
2008,05,17,09,04,17.00
2008,05,17,09,05,17.10
2008,05,17,09,06,17.10
2008,05,17,09,07,17.20
2008,05,17,09,08,17.40
2008,05,17,09,09,17.50
2008,05,17,09,10,17.60
2008,05,17,09,11,17.70
2008,05,17,09,12,17.90
2008,05,17,09,13,17.90
2008,05,17,09,14,18.00
2008,05,17,09,15,18.10
2008,05,17,09,16,18.20
2008,05,17,09,17,18.20
2008,05,17,09,18,18.20
2008,05,17,09,19,18.30
2008,05,17,09,20,18.40
2008,05,17,09,21,18.40
2008,05,17,09,22,18.50
2008,05,17,09,23,18.70
2008,05,17,09,24,18.80
2008,05,17,09,25,19.00
2008,05,17,09,26,19.30
2008,05,17,09,27,19.60
2008,05,17,09,28,20.00
2008,05,17,09,29,20.40
2008,05,17,09,30,20.70
2008,05,17,09,31,21.00
2008,05,17,09,32,21.20
2008,05,17,09,33,21.40
2008,05,17,09,34,21.50
2008,05,17,09,35,21.70
2008,05,17,09,36,21.80
2008,05,17,09,37,21.90
2008,05,17,09,38,22.00
2008,05,17,09,39,22.20
2008,05,17,09,40,22.30
2008,05,17,09,41,22.30
2008,05,17,09,42,22.30
2008,05,17,09,43,22.40
2008,05,17,09,44,22.40
2008,05,17,09,45,22.50
2008,05,17,09,46,22.60
2008,05,17,09,47,22.60
2008,05,17,09,48,22.70
2008,05,17,09,49,22.70
2008,05,17,09,50,22.70
2008,05,17,09,51,22.60
2008,05,17,09,52,22.60
2008,05,17,09,53,22.70
2008,05,17,09,54,22.70
2008,05,17,09,55,22.70
2008,05,17,09,56,22.70
2008,05,17,09,57,22.70
2008,05,17,09,58,22.70
2008,05,17,09,59,22.70
2008,05,17,10,00,22.60
2008,05,17,10,01,22.60
2008,05,17,10,02,22.60
2008,05,17,10,03,22.60
2008,05,17,10,04,22.60
2008,05,17,10,05,22.60
2008,05,17,10,06,22.70
2008,05,17,10,07,22.70
2008,05,17,10,08,22.70
2008,05,17,10,09,22.70
2008,05,17,10,10,22.70
2008,05,17,10,11,22.80
2008,05,17,10,12,22.80
2008,05,17,10,13,22.80
2008,05,17,10,14,22.90
2008,05,17,10,15,22.90
2008,05,17,10,16,22.90
2008,05,17,10,17,22.90
2008,05,17,10,18,22.90
2008,05,17,10,19,22.90
2008,05,17,10,20,22.90
2008,05,17,10,21,22.90
2008,05,17,10,22,23.00
2008,05,17,10,23,23.00
2008,05,17,10,24,22.90
2008,05,17,10,25,22.90
2008,05,17,10,26,22.90
2008,05,17,10,27,22.90
2008,05,17,10,28,22.90
2008,05,17,10,29,22.90
2008,05,17,10,30,22.90
2008,05,17,10,31,22.90
2008,05,17,10,32,22.90
2008,05,17,10,33,23.00
2008,05,17,10,34,23.10
2008,05,17,10,35,23.00
2008,05,17,10,36,23.10
2008,05,17,10,37,23.10
2008,05,17,10,38,23.10
2008,05,17,10,39,23.10
2008,05,17,10,40,23.10
2008,05,17,10,41,23.10
2008,05,17,10,42,23.10
2008,05,17,10,43,23.20
2008,05,17,10,44,23.20
2008,05,17,10,45,23.20
2008,05,17,10,46,23.20
2008,05,17,10,47,23.20
2008,05,17,10,48,23.20
2008,05,17,10,49,23.20
2008,05,17,10,50,23.20
2008,05,17,10,51,23.20
2008,05,17,10,52,23.20
2008,05,17,10,53,23.20
2008,05,17,10,54,23.20
2008,05,17,10,55,23.20
2008,05,17,10,56,23.20
2008,05,17,10,57,23.30
2008,05,17,10,58,23.30
2008,05,17,10,59,23.30
2008,05,17,11,00,23.30
2008,05,17,11,01,23.30
2008,05,17,11,02,23.30
2008,05,17,11,03,23.30
2008,05,17,11,04,23.30
2008,05,17,11,05,23.30
2008,05,17,11,06,23.40
2008,05,17,11,07,23.40
2008,05,17,11,08,23.40
2008,05,17,11,09,23.50
2008,05,17,11,10,23.50
2008,05,17,11,11,23.60
2008,05,17,11,12,23.60
2008,05,17,11,13,23.50
2008,05,17,11,14,23.50
2008,05,17,11,15,23.50
2008,05,17,11,16,23.50
2008,05,17,11,17,23.50
2008,05,17,11,18,23.50
2008,05,17,11,19,23.50
2008,05,17,11,20,23.60
2008,05,17,11,21,23.70
2008,05,17,11,22,23.70
2008,05,17,11,23,23.80
2008,05,17,11,24,23.80
2008,05,17,11,25,23.80
2008,05,17,11,26,23.80
2008,05,17,11,27,23.80
2008,05,17,11,28,23.80
2008,05,17,11,29,23.70
2008,05,17,11,30,23.70
2008,05,17,11,31,23.70
2008,05,17,11,32,23.70
2008,05,17,11,33,23.70
2008,05,17,11,34,23.80
2008,05,17,11,35,23.80
2008,05,17,11,36,23.80
2008,05,17,11,37,23.80
2008,05,17,11,38,23.80
2008,05,17,11,39,23.80
2008,05,17,11,40,23.80
2008,05,17,11,41,23.90
2008,05,17,11,42,23.90
2008,05,17,11,43,23.90
2008,05,17,11,44,23.90
2008,05,17,11,45,23.90
2008,05,17,11,46,23.80
2008,05,17,11,47,23.80
2008,05,17,11,48,23.90
2008,05,17,11,49,23.90
2008,05,17,11,50,23.90
2008,05,17,11,51,23.90
2008,05,17,11,52,23.90
2008,05,17,11,53,23.90
2008,05,17,11,54,23.90
2008,05,17,11,55,23.80
2008,05,17,11,56,23.40
2008,05,17,11,57,22.80
2008,05,17,11,58,22.10
2008,05,17,11,59,21.40
2008,05,17,12,00,20.90
2008,05,17,12,01,20.50
2008,05,17,12,02,20.20
2008,05,17,12,03,20.00
2008,05,17,12,04,19.80
2008,05,17,12,05,19.70
2008,05,17,12,06,19.60
2008,05,17,12,07,19.60
2008,05,17,12,08,19.60
2008,05,17,12,09,19.60
2008,05,17,12,10,19.70
2008,05,17,12,11,19.60
2008,05,17,12,12,19.70
2008,05,17,12,13,19.70
2008,05,17,12,14,19.80
2008,05,17,12,15,19.80
2008,05,17,12,16,19.90
2008,05,17,12,17,20.00
2008,05,17,12,18,20.10
2008,05,17,12,19,20.20
2008,05,17,12,20,20.20
2008,05,17,12,21,20.20
2008,05,17,12,22,20.30
2008,05,17,12,23,20.40
2008,05,17,12,24,20.50
2008,05,17,12,25,20.60
2008,05,17,12,26,20.70
2008,05,17,12,27,20.70
2008,05,17,12,28,20.70
2008,05,17,12,29,20.70
2008,05,17,12,30,20.70
2008,05,17,12,31,20.70
2008,05,17,12,32,20.80
2008,05,17,12,33,20.90
2008,05,17,12,34,20.90
2008,05,17,12,35,20.90
2008,05,17,12,36,20.90
2008,05,17,12,37,20.90
2008,05,17,12,38,20.90
2008,05,17,12,39,20.80
2008,05,17,12,40,20.80
2008,05,17,12,41,20.80
2008,05,17,12,42,20.80
2008,05,17,12,43,20.90
2008,05,17,12,44,20.90
2008,05,17,12,45,20.90
2008,05,17,12,46,21.00
2008,05,17,12,47,21.00
2008,05,17,12,48,21.00
2008,05,17,12,49,21.10
2008,05,17,12,50,21.20
2008,05,17,12,51,21.30
2008,05,17,12,52,21.40
2008,05,17,12,53,21.60
2008,05,17,12,54,21.70
2008,05,17,12,55,21.90
2008,05,17,12,56,22.20
2008,05,17,12,57,22.50
2008,05,17,12,58,22.90
2008,05,17,12,59,23.20
2008,05,17,13,00,23.40
2008,05,17,13,01,23.60
2008,05,17,13,02,23.70
2008,05,17,13,03,23.90
2008,05,17,13,04,24.00
2008,05,17,13,05,24.10
2008,05,17,13,06,24.20
2008,05,17,13,07,24.20
2008,05,17,13,08,24.30
2008,05,17,13,09,24.30
2008,05,17,13,10,24.40
2008,05,17,13,11,24.40
2008,05,17,13,12,24.50
2008,05,17,13,13,24.60
2008,05,17,13,14,24.70
2008,05,17,13,15,24.70
2008,05,17,13,16,24.80
2008,05,17,13,17,24.80
2008,05,17,13,18,24.80
2008,05,17,13,19,24.80
2008,05,17,13,20,24.80
2008,05,17,13,21,24.80
2008,05,17,13,22,24.90
2008,05,17,13,23,25.00
2008,05,17,13,24,25.10
2008,05,17,13,25,25.20
2008,05,17,13,26,25.20
2008,05,17,13,27,24.70
2008,05,17,13,28,23.90
2008,05,17,13,29,23.10
2008,05,17,13,30,22.50
2008,05,17,13,31,22.00
2008,05,17,13,32,21.60
2008,05,17,13,33,21.30
2008,05,17,13,34,21.00
2008,05,17,13,35,20.90
2008,05,17,13,36,20.70
2008,05,17,13,37,20.50
2008,05,17,13,38,20.40
2008,05,17,13,39,20.30
2008,05,17,13,40,20.30
2008,05,17,13,41,20.40
2008,05,17,13,42,20.40
2008,05,17,13,43,20.40
2008,05,17,13,44,20.40
2008,05,17,13,45,20.50
2008,05,17,13,46,20.50
2008,05,17,13,47,20.60
2008,05,17,13,48,20.70
2008,05,17,13,49,20.80
2008,05,17,13,50,21.00
2008,05,17,13,51,21.20
2008,05,17,13,52,21.30
2008,05,17,13,53,21.40
2008,05,17,13,54,21.60
2008,05,17,13,55,21.60
2008,05,17,13,56,21.70
2008,05,17,13,57,21.60
2008,05,17,13,58,21.70
2008,05,17,13,59,21.80
2008,05,17,14,00,21.80
2008,05,17,14,01,21.90
2008,05,17,14,02,22.10
2008,05,17,14,03,22.70
2008,05,17,14,04,23.30
2008,05,17,14,05,23.90
2008,05,17,14,06,24.30
2008,05,17,14,07,24.70
2008,05,17,14,08,25.00
2008,05,17,14,09,25.30
2008,05,17,14,10,25.60
2008,05,17,14,11,25.80
2008,05,17,14,12,25.90
2008,05,17,14,13,26.00
2008,05,17,14,14,26.20
2008,05,17,14,15,26.40
2008,05,17,14,16,26.50
2008,05,17,14,17,26.60
2008,05,17,14,18,26.50
2008,05,17,14,19,26.40
2008,05,17,14,20,26.30
2008,05,17,14,21,26.20
2008,05,17,14,22,26.20
2008,05,17,14,23,26.20
2008,05,17,14,24,26.30
2008,05,17,14,25,26.40
2008,05,17,14,26,26.40
2008,05,17,14,27,26.50
2008,05,17,14,28,26.40
2008,05,17,14,29,26.40
2008,05,17,14,30,26.40
2008,05,17,14,31,26.50
2008,05,17,14,32,26.50
2008,05,17,14,33,26.50
2008,05,17,14,34,26.50
2008,05,17,14,35,26.40
2008,05,17,14,36,26.40
2008,05,17,14,37,26.40
2008,05,17,14,38,26.40
2008,05,17,14,39,26.30
2008,05,17,14,40,26.20
2008,05,17,14,41,26.20
2008,05,17,14,42,26.10
2008,05,17,14,43,26.20
2008,05,17,14,44,26.30
2008,05,17,14,45,26.30
2008,05,17,14,46,26.30
2008,05,17,14,47,26.30
2008,05,17,14,48,26.30
2008,05,17,14,49,26.40
2008,05,17,14,50,26.40
2008,05,17,14,51,26.50
2008,05,17,14,52,26.50
2008,05,17,14,53,26.40
2008,05,17,14,54,26.40
2008,05,17,14,55,26.40
2008,05,17,14,56,26.40
2008,05,17,14,57,26.50
2008,05,17,14,58,26.60
2008,05,17,14,59,26.70
2008,05,17,15,00,26.70
2008,05,17,15,01,26.60
2008,05,17,15,02,26.50
2008,05,17,15,03,26.40
2008,05,17,15,04,26.40
2008,05,17,15,05,26.30
2008,05,17,15,06,26.40
2008,05,17,15,07,26.50
2008,05,17,15,08,26.60
2008,05,17,15,09,26.70
2008,05,17,15,10,26.80
2008,05,17,15,11,26.70
2008,05,17,15,12,26.80
2008,05,17,15,13,26.90
2008,05,17,15,14,27.10
2008,05,17,15,15,27.20
2008,05,17,15,16,27.30
2008,05,17,15,17,27.30
2008,05,17,15,18,27.30
2008,05,17,15,19,27.40
2008,05,17,15,20,27.60
2008,05,17,15,21,27.70
2008,05,17,15,22,27.70
2008,05,17,15,23,27.70
2008,05,17,15,24,27.80
2008,05,17,15,25,27.90
2008,05,17,15,26,27.90
2008,05,17,15,27,27.80
2008,05,17,15,28,27.60
2008,05,17,15,29,27.20
2008,05,17,15,30,26.80
2008,05,17,15,31,26.50
2008,05,17,15,32,26.30
2008,05,17,15,33,26.10
2008,05,17,15,34,26.00
2008,05,17,15,35,25.90
2008,05,17,15,36,26.00
2008,05,17,15,37,26.00
2008,05,17,15,38,25.90
2008,05,17,15,39,25.60
2008,05,17,15,40,25.30
2008,05,17,15,41,24.90
2008,05,17,15,42,24.70
2008,05,17,15,43,24.70
2008,05,17,15,44,24.70
2008,05,17,15,45,24.80
2008,05,17,15,46,24.90
2008,05,17,15,47,25.10
2008,05,17,15,48,25.10
2008,05,17,15,49,25.10
2008,05,17,15,50,24.90
2008,05,17,15,51,24.70
2008,05,17,15,52,24.50
2008,05,17,15,53,24.20
2008,05,17,15,54,24.00
2008,05,17,15,55,23.80
2008,05,17,15,56,23.70
2008,05,17,15,57,23.60
2008,05,17,15,58,23.60
2008,05,17,15,59,23.60
2008,05,17,16,00,23.60
2008,05,17,16,01,23.60
2008,05,17,16,02,23.70
2008,05,17,16,03,23.70
2008,05,17,16,04,23.80
2008,05,17,16,05,23.90
2008,05,17,16,06,24.00
2008,05,17,16,07,24.10
2008,05,17,16,08,24.20
2008,05,17,16,09,24.30
2008,05,17,16,10,24.50
2008,05,17,16,11,24.60
2008,05,17,16,12,24.70
2008,05,17,16,13,24.80
2008,05,17,16,14,25.00
2008,05,17,16,15,25.10
2008,05,17,16,16,25.20
2008,05,17,16,17,25.30
2008,05,17,16,18,25.40
2008,05,17,16,19,25.50
2008,05,17,16,20,25.70
2008,05,17,16,21,25.70
2008,05,17,16,22,25.90
2008,05,17,16,23,25.90
2008,05,17,16,24,26.00
2008,05,17,16,25,26.10
2008,05,17,16,26,26.20
2008,05,17,16,27,26.20
2008,05,17,16,28,26.30
2008,05,17,16,29,26.30
2008,05,17,16,30,26.40
2008,05,17,16,31,26.50
2008,05,17,16,32,26.50
2008,05,17,16,33,26.50
2008,05,17,16,34,26.50
2008,05,17,16,35,26.60
2008,05,17,16,36,26.60
2008,05,17,16,37,26.50
2008,05,17,16,38,26.50
2008,05,17,16,39,26.40
2008,05,17,16,40,26.30
2008,05,17,16,41,26.20
2008,05,17,16,42,26.10
2008,05,17,16,43,26.00
2008,05,17,16,44,25.90
2008,05,17,16,45,25.90
2008,05,17,16,46,25.80
2008,05,17,16,47,25.70
2008,05,17,16,48,25.70
2008,05,17,16,49,25.70
2008,05,17,16,50,25.70
2008,05,17,16,51,25.80
2008,05,17,16,52,25.80
2008,05,17,16,53,25.80
2008,05,17,16,54,25.90
2008,05,17,16,55,25.90
2008,05,17,16,56,25.90
2008,05,17,16,57,26.00
2008,05,17,16,58,26.10
2008,05,17,16,59,26.10
2008,05,17,17,00,26.10
2008,05,17,17,01,26.00
2008,05,17,17,02,25.90
2008,05,17,17,03,25.90
2008,05,17,17,04,25.70
2008,05,17,17,05,25.60
2008,05,17,17,06,25.60
2008,05,17,17,07,25.60
2008,05,17,17,08,25.60
2008,05,17,17,09,25.60
2008,05,17,17,10,25.70
2008,05,17,17,11,25.70
2008,05,17,17,12,25.80
2008,05,17,17,13,25.90
2008,05,17,17,14,25.90
2008,05,17,17,15,26.10
2008,05,17,17,16,26.20
2008,05,17,17,17,26.10
2008,05,17,17,18,26.00
2008,05,17,17,19,25.90